Regional Weather Roundup
Issued by NWS Cleveland, OH

Home | Current Version | Previous Version | Text Only | Print | Product List | Glossary Off
Versions: 1 2 3 4 5 6 7 8 9 10 11 12 13 14 15 16 17 18 19 20 21 22 23 24 25 26 27 28 29 30 31 32 33 34 35 36 37 38 39 40 41 42 43 44 45 46 47 48 49 50

000
ASUS41 KCLE 231500
RWRCLE
OHIO REGIONAL WEATHER ROUNDUP
NATIONAL WEATHER SERVICE WILMINGTON, OH
1100 AM EDT FRI JUN 23 2017

NOTE: "FAIR" INDICATES FEW OR NO CLOUDS BELOW 12,000 FEET WITH NO
SIGNIFICANT WEATHER AND/OR OBSTRUCTIONS TO VISIBILITY.

OHZ001>008-015>018-024>027-034-035-043-044-231600-
   NORTHWEST OHIO

CITY           SKY/WX    TMP DP  RH WIND       PRES   REMARKS
DEFIANCE       PTSUNNY   71  65  81 E5        29.62F
FINDLAY        LGT RAIN  75  69  81 W10       29.64F
TOLEDO EXPRESS LGT RAIN  70  68  93 NW5       29.60F
TOLEDO EXEC    RAIN      73  73 100 W12       29.62F FOG
LIMA           LGT RAIN  70  70 100 W5        29.68F FOG
$$

OHZ009>014-019>023-028>033-038-089-231600-
   NORTHEAST OHIO

CITY           SKY/WX    TMP DP  RH WIND       PRES   REMARKS
CLE-HOPKINS    RAIN      76  73  91 W3        29.66F VSB 1
CLE-LAKEFRONT  LGT RAIN  75  71  87 SW12G22   29.63F
CUY CO. ARPT   LGT RAIN  75  72  88 SW13      29.66F FOG
LORAIN-ELYRIA  LGT RAIN  73  69  87 W5        29.65F FOG
ASHTABULA      HVY RAIN  71  71 100 S10       29.66F VSB 3/4
AKRON-CANTON   CLOUDY    75  70  84 SW17      29.70F
WOOSTER        CLOUDY    75  72  88 SW12      29.69F
MANSFIELD      LGT RAIN  73  72  96 SW10      29.70S FOG
YOUNGSTOWN     CLOUDY    73  70  90 SW12      29.69F
$$

OHZ042-051>053-060>062-070>072-077>081-231600-
  SOUTHWEST OHIO

CITY           SKY/WX    TMP DP  RH WIND       PRES   REMARKS
CINC-COVINGTON CLOUDY    78  72  81 SW14G20   29.76S
CINC-LUNKEN    PTSUNNY   78  74  87 SW15G23   29.76S
HAMILTON       LGT RAIN  76  74  93 SW10G18   29.75S
DAYTON         LGT RAIN  72  72 100 SW12G22   29.73F
WRIGHT-PAT AFB LGT RAIN  72  72 100 SW15      29.73S FOG
DAYTON GENERAL CLOUDY    75  72  90 SW12G20   29.74F
WILMINGTON     CLOUDY    75  74  96 SW20G28   29.75F
$$

OHZ036-037-039>041-045>050-054>059-063>069-073>076-082>088-231600-
  CENTRAL AND SOUTHEAST OHIO

CITY           SKY/WX    TMP DP  RH WIND       PRES   REMARKS
COLUMBUS       RAIN      74  74 100 S12       29.72F FOG
OSU AIRPORT    LGT RAIN  74  74 100 SW12      29.72F
BOLTON FIELD   LGT RAIN  73  72  94 SW15G22   29.73F
RICKENBACK AFB NOT AVBL
NEWARK         LGT RAIN  74  72  93 SW12G18   29.73S
MARION         TSTM      72  70  93 W15G22    29.70S FOG
LANCASTER      CLOUDY    73  72  96 SW9       29.75F
ZANESVILLE     RAIN      74  71  91 SW12      29.75F FOG
NEW PHILLY     CLOUDY    74  72  93 SW6       29.73F
$$




USA.gov is the U.S. government's official web portal to all federal, state and local government web resources and services.